Location: Kaarina
(60.4167°N, 22.4167°E)
Time: 08:33:22
(UTC+03:00)

SPOT 1/Viking Rocket - Pass Details

Date: 24 August 2019
Orbit: 776 x 795 km, 98.5° (Epoch: 21 September)

Event Time Altitude Azimuth Distance (km) Brightness Sun altitude
Exits shadow 22:38:13 10° 166° (SSE) 2,388 5.5 -10.7°
Reaches altitude 10° 22:38:16 10° 166° (SSE) 2,365 5.5 -10.7°
Maximum altitude 22:43:31 78° 253° (WSW) 820 3.7 -11.1°
Drops below altitude 10° 22:48:46 10° 340° (NNW) 2,374 7.3 -11.5°
Sets 22:51:07 0° 342° (NNW) 3,305 8.2 -11.7°
